• In Czech Republic
  • List of Countries
  • For 7 days
  • Water Temperature
  • Satellite Maps
  • Weather Map
  • Weather Widgets
  • user-avatar
    Login

    Hourly Weather Sumki

    Today, 23 April, Monday

    Time Temperature Precipitation Wind Pressure Humidity
    00:00 -6°C° 0.2 mm 7 mps 737 mmHg 84%
    01:00 -5°C° 0.2 mm 6 mps 737 mmHg 84%
    02:00 -5°C° 0.2 mm 6 mps 738 mmHg 84%
    03:00 -5°C° 0 mm 6 mps 739 mmHg 78%
    04:00 -5°C° 0.1 mm 6 mps 739 mmHg 78%
    05:00 -5°C° 0.1 mm 6 mps 739 mmHg 78%
    06:00 -5°C° 0.1 mm 6 mps 740 mmHg 78%
    07:00 -5°C° 0.2 mm 6 mps 740 mmHg 76%
    08:00 -5°C° 0.2 mm 6 mps 741 mmHg 74%
    09:00 -4°C° 0.2 mm 6 mps 741 mmHg 71%
    10:00 -4°C° 0.1 mm 6 mps 742 mmHg 69%
    11:00 -3°C° 0.1 mm 6 mps 742 mmHg 67%
    12:00 -2°C° 0.1 mm 6 mps 742 mmHg 65%
    13:00 -2°C° 0.1 mm 6 mps 743 mmHg 64%
    14:00 -1°C° 0.1 mm 6 mps 743 mmHg 63%
    15:00 -1°C° 0.1 mm 6 mps 744 mmHg 62%
    16:00 0°C° 0.1 mm 5 mps 744 mmHg 64%
    17:00 0°C° 0.1 mm 5 mps 745 mmHg 66%
    18:00 0°C° 0.1 mm 5 mps 745 mmHg 67%
    19:00 -1°C° 0.1 mm 4 mps 745 mmHg 71%
    20:00 -2°C° 0.1 mm 4 mps 746 mmHg 74%
    21:00 -2°C° 0.1 mm 4 mps 746 mmHg 77%
    22:00 -3°C° 0 mm 4 mps 746 mmHg 78%
    23:00 -3°C° 0 mm 4 mps 746 mmHg 78%

    Tomorrow, 24 April, Tuesday

    Time Temperature Precipitation Wind Pressure Humidity
    00:00 -3°C° 0 mm 4 mps 746 mmHg 79%
    01:00 -4°C° 0 mm 4 mps 746 mmHg 80%
    02:00 -4°C° 0 mm 4 mps 747 mmHg 81%
    03:00 -4°C° 0 mm 4 mps 747 mmHg 82%
    04:00 -5°C° 0 mm 5 mps 747 mmHg 81%
    05:00 -5°C° 0 mm 5 mps 747 mmHg 80%
    06:00 -5°C° 0 mm 5 mps 748 mmHg 79%
    07:00 -4°C° 0 mm 5 mps 748 mmHg 74%
    08:00 -2°C° 0 mm 5 mps 748 mmHg 68%
    09:00 -1°C° 0 mm 5 mps 749 mmHg 63%
    10:00 0°C° 0 mm 5 mps 749 mmHg 60%
    11:00 +1°C° 0 mm 5 mps 749 mmHg 57%
    12:00 +2°C° 0 mm 5 mps 749 mmHg 54%
    13:00 +3°C° 0 mm 4 mps 749 mmHg 53%
    14:00 +4°C° 0 mm 4 mps 749 mmHg 53%
    15:00 +4°C° 0 mm 4 mps 749 mmHg 52%
    16:00 +4°C° 0 mm 3 mps 750 mmHg 56%
    17:00 +4°C° 0 mm 2 mps 750 mmHg 60%
    18:00 +4°C° 0 mm 2 mps 750 mmHg 64%
    19:00 +4°C° 0 mm 1 mps 750 mmHg 69%
    20:00 +2°C° 0 mm 1 mps 750 mmHg 74%
    21:00 +1°C° 0 mm 1 mps 750 mmHg 80%
    22:00 0°C° 0 mm 1 mps 751 mmHg 81%
    23:00 -1°C° 0 mm 0 mps 751 mmHg 83%

    Day after tomorrow, 25 April, Wednesday

    Time Temperature Precipitation Wind Pressure Humidity
    00:00 -2°C° 0 mm 0 mps 751 mmHg 85%
    01:00 -2°C° 0 mm 0 mps 751 mmHg 85%
    02:00 -1°C° 0 mm 1 mps 751 mmHg 85%
    03:00 -1°C° 0 mm 1 mps 751 mmHg 85%
    04:00 0°C° 0 mm 1 mps 751 mmHg 82%
    05:00 0°C° 0 mm 1 mps 751 mmHg 79%
    06:00 +1°C° 0 mm 1 mps 751 mmHg 76%
    07:00 +2°C° 0 mm 2 mps 751 mmHg 68%
    08:00 +4°C° 0 mm 2 mps 751 mmHg 60%
    09:00 +6°C° 0 mm 2 mps 751 mmHg 53%
    10:00 +7°C° 0 mm 3 mps 750 mmHg 50%
    11:00 +8°C° 0 mm 3 mps 750 mmHg 48%
    12:00 +9°C° 0 mm 3 mps 750 mmHg 45%
    13:00 +9°C° 0 mm 3 mps 749 mmHg 45%
    14:00 +10°C° 0 mm 3 mps 749 mmHg 46%
    15:00 +10°C° 0 mm 3 mps 749 mmHg 46%
    16:00 +9°C° 0 mm 3 mps 748 mmHg 52%
    17:00 +8°C° 0 mm 3 mps 748 mmHg 58%
    18:00 +7°C° 0 mm 2 mps 748 mmHg 64%
    19:00 +6°C° 0.1 mm 2 mps 747 mmHg 68%
    20:00 +4°C° 0.1 mm 3 mps 747 mmHg 73%
    21:00 +3°C° 0.1 mm 3 mps 747 mmHg 77%
    22:00 +3°C° 0.1 mm 3 mps 747 mmHg 80%
    23:00 +3°C° 0.1 mm 3 mps 746 mmHg 83%

    26 April, Thursday

    Time Temperature Precipitation Wind Pressure Humidity
    00:00 +3°C° 0.1 mm 3 mps 746 mmHg 85%
    01:00 +3°C° 0.2 mm 3 mps 745 mmHg 87%
    02:00 +3°C° 0.2 mm 3 mps 745 mmHg 88%
    03:00 +3°C° 0.2 mm 3 mps 744 mmHg 90%
    04:00 +3°C° 0.3 mm 3 mps 744 mmHg 91%
    05:00 +4°C° 0.3 mm 2 mps 744 mmHg 92%
    06:00 +4°C° 0.3 mm 2 mps 744 mmHg 92%
    07:00 +4°C° 0 mm 2 mps 744 mmHg 90%
    08:00 +5°C° 0 mm 2 mps 744 mmHg 88%
    09:00 +6°C° 0 mm 2 mps 744 mmHg 86%
    10:00 +8°C° 0 mm 1 mps 744 mmHg 83%
    11:00 +9°C° 0 mm 1 mps 743 mmHg 80%
    12:00 +10°C° 0 mm 1 mps 743 mmHg 77%
    13:00 +10°C° 0 mm 1 mps 743 mmHg 76%
    14:00 +10°C° 0 mm 1 mps 743 mmHg 75%
    15:00 +11°C° 0 mm 1 mps 743 mmHg 73%
    16:00 +10°C° 0.1 mm 1 mps 742 mmHg 76%
    17:00 +9°C° 0.1 mm 0 mps 742 mmHg 79%
    18:00 +9°C° 0.1 mm 0 mps 742 mmHg 82%
    19:00 +8°C° 0.1 mm 0 mps 743 mmHg 86%
    20:00 +8°C° 0.1 mm 1 mps 743 mmHg 89%
    21:00 +7°C° 0.1 mm 1 mps 743 mmHg 92%
    22:00 +7°C° 0.1 mm 1 mps 743 mmHg 93%
    23:00 +7°C° 0.1 mm 1 mps 743 mmHg 94%

    27 April, Friday

    Time Temperature Precipitation Wind Pressure Humidity
    00:00 +5°C° 0.1 mm 2 mps 744 mmHg 96%
    01:00 +5°C° 0 mm 2 mps 744 mmHg 96%
    02:00 +5°C° 0 mm 2 mps 744 mmHg 96%
    03:00 +4°C° 0 mm 2 mps 745 mmHg 96%
    04:00 +5°C° 0 mm 2 mps 745 mmHg 95%
    05:00 +4°C° 0 mm 3 mps 746 mmHg 95%
    06:00 +4°C° 0 mm 3 mps 746 mmHg 94%
    07:00 +7°C° 0 mm 3 mps 746 mmHg 87%
    08:00 +8°C° 0 mm 4 mps 747 mmHg 79%
    09:00 +11°C° 0 mm 4 mps 747 mmHg 72%
    10:00 +12°C° 0.1 mm 5 mps 748 mmHg 66%
    11:00 +13°C° 0.1 mm 5 mps 748 mmHg 60%
    12:00 +14°C° 0.1 mm 6 mps 749 mmHg 54%
    13:00 +14°C° 0 mm 6 mps 749 mmHg 51%
    14:00 +15°C° 0 mm 6 mps 750 mmHg 47%
    15:00 +15°C° 0 mm 6 mps 750 mmHg 43%
    16:00 +15°C° 0 mm 4 mps 750 mmHg 48%
    17:00 +14°C° 0 mm 3 mps 750 mmHg 52%
    18:00 +14°C° 0 mm 2 mps 750 mmHg 57%
    19:00 +13°C° 0 mm 2 mps 750 mmHg 61%
    20:00 +12°C° 0 mm 2 mps 750 mmHg 65%
    21:00 +10°C° 0 mm 2 mps 750 mmHg 69%
    22:00 +9°C° 0 mm 2 mps 750 mmHg 72%
    23:00 +9°C° 0 mm 2 mps 750 mmHg 74%

    28 April, Saturday

    Time Temperature Precipitation Wind Pressure Humidity
    00:00 +9°C° 0 mm 2 mps 750 mmHg 76%
    01:00 +9°C° 0.4 mm 3 mps 750 mmHg 80%
    02:00 +9°C° 0.4 mm 3 mps 749 mmHg 84%
    03:00 +8°C° 0.4 mm 3 mps 749 mmHg 88%
    04:00 +8°C° 0.6 mm 3 mps 749 mmHg 89%
    05:00 +8°C° 0.6 mm 3 mps 748 mmHg 90%
    06:00 +7°C° 0.6 mm 4 mps 748 mmHg 92%
    07:00 +7°C° 0.6 mm 4 mps 748 mmHg 90%
    08:00 +7°C° 0.6 mm 4 mps 747 mmHg 89%
    09:00 +8°C° 0.6 mm 5 mps 747 mmHg 87%
    10:00 +9°C° 0.1 mm 5 mps 748 mmHg 77%
    11:00 +11°C° 0.1 mm 6 mps 748 mmHg 68%
    12:00 +12°C° 0.1 mm 7 mps 748 mmHg 58%
    13:00 +13°C° 0.2 mm 6 mps 749 mmHg 55%
    14:00 +14°C° 0.2 mm 6 mps 749 mmHg 53%
    15:00 +14°C° 0.2 mm 6 mps 750 mmHg 50%
    16:00 +13°C° 0.2 mm 5 mps 750 mmHg 54%
    17:00 +12°C° 0.2 mm 4 mps 750 mmHg 58%
    18:00 +12°C° 0.2 mm 4 mps 750 mmHg 61%
    19:00 +10°C° 0.1 mm 4 mps 751 mmHg 66%
    20:00 +9°C° 0.1 mm 3 mps 751 mmHg 70%
    21:00 +8°C° 0.1 mm 3 mps 752 mmHg 75%
    22:00 +7°C° 0 mm 3 mps 752 mmHg 77%
    23:00 +6°C° 0 mm 4 mps 752 mmHg 79%
    Show more